GFSNE_2pvu_pres_120.txt.gz
Presure
268 274 277 278 279 284 289 292 298 304 258 176 314 330 170 339 299 127 133 135 117 126 137 103 134 108 132 175 146 149 254 156 154 162 148 228 174 175
291 285 276 267 265 268 272 274 276 280 165 212 151 201 137 139 138 120 143 136 123 389 278 123 104 280 241 144 106 138 137 162 152 134 244 217 151 238
267 278 254 273 289 292 289 239 135 135 190 152 146 146 175 286 283 249 263 105 124 137 143 253 368 248 119 146 116 133 145 168 135 157 210 244 254 252
155 248 260 265 268 271 224 168 168 167 156 159 162 163 235 274 248 283 291 350 124 280 333 125 119 147 130 141 121 120 129 124 283 216 245 184 240 244
149 145 142 138 135 136 137 142 141 141 134 135 139 144 134 128 130 127 127 166 127 127 128 127 129 129 135 189 308 313 125 136 162 156 240 225 245 249
277 259 281 295 290 287 276 293 285 266 274 297 309 294 276 299 276 197 200 202 216 133 134 136 142 278 279 285 242 265 251 278 291 281 309 249 271 231
266 283 268 296 301 300 321 346 280 276 290 306 264 314 311 298 268 290 260 261 269 299 287 299 281 279 271 281 261 280 257 268 248 253 254 250 250 268
252 288 284 289 307 310 346 357 357 343 346 357 386 304 292 333 338 281 284 273 258 261 286 292 277 268 271 269 275 248 263 232 257 261 263 266 288 260
275 280 295 305 289 414 442 393 365 352 352 359 366 374 383 393 407 429 313 264 274 262 253 268 291 263 262 254 244 241 246 244 255 244 249 262 242 216
275 280 308 305 428 356 336 322 315 314 318 320 323 328 337 351 369 391 405 335 288 271 268 254 272 275 271 261 207 254 255 247 253 243 289 243 175 143
265 295 323 339 340 327 318 308 306 308 366 371 376 325 323 326 336 355 377 401 325 291 267 255 244 265 283 270 271 258 242 250 241 198 148 244 151 209
276 301 281 330 322 312 305 303 350 376 367 363 363 414 453 497 461 332 347 369 395 339 281 279 251 261 251 184 229 161 263 206 169 161 156 152 161 254
280 293 293 323 312 302 303 378 368 365 355 361 374 415 428 441 468 444 395 344 362 393 329 289 274 264 261 256 260 271 261 261 261 234 263 253 252 262
288 287 292 311 300 300 367 358 354 352 377 396 402 411 437 442 431 440 420 438 338 354 386 340 284 276 266 258 258 252 263 260 222 250 233 250 242 246
295 283 311 305 296 365 353 347 340 368 375 400 405 415 417 390 382 372 372 385 407 374 345 376 343 287 276 266 257 253 240 261 254 247 240 183 247 238
339 279 311 297 321 351 342 332 350 364 377 396 416 380 342 392 451 500 530 517 513 514 524 343 369 342 290 275 260 260 253 240 249 258 247 240 246 247
280 266 297 294 348 339 329 327 353 355 370 399 417 418 367 437 467 498 508 496 490 490 496 502 341 365 341 292 271 258 259 254 242 260 239 245 241 236
305 304 291 331 342 330 319 345 342 349 368 409 418 385 425 447 499 488 494 478 471 470 485 515 536 342 360 374 293 264 258 253 254 243 228 245 241 228
262 296 290 344 330 325 319 340 335 346 374 406 416 425 441 489 503 496 474 455 452 459 486 507 527 549 341 353 357 291 265 256 251 246 241 230 228 234
299 291 325 337 324 318 327 327 337 343 378 419 428 447 466 505 502 464 445 435 448 474 483 496 515 530 539 337 356 338 289 266 261 255 238 246 235 241
294 287 340 331 317 309 317 321 335 343 413 448 456 463 490 500 451 432 425 448 462 471 478 486 499 515 528 525 331 360 333 289 269 265 252 240 236 235
291 300 333 323 310 309 309 318 331 349 464 462 464 488 490 447 427 419 435 437 451 459 475 479 489 503 516 527 450 330 362 330 294 270 262 251 239 235
285 342 329 319 307 305 313 315 332 356 448 449 489 492 466 429 415 425 424 424 436 449 463 465 476 487 496 511 525 387 333 360 348 297 274 265 251 229

GFSNE_2pvu_pres_123.txt.gz
Presure
265 276 286 287 294 303 292 279 279 280 280 280 288 296 304 314 294 317 339 337 280 153 132 131 130 130 134 128 122 139 114 132 124 135 135 133 177 119
271 286 273 266 274 263 265 275 289 285 273 264 268 275 280 281 282 284 291 210 304 317 329 337 342 257 151 160 135 134 137 109 151 201 129 173 135 164
244 242 253 251 267 214 277 278 283 280 273 269 277 282 272 271 273 238 277 277 280 283 202 130 152 189 118 131 234 123 301 111 143 225 147 151 132 137
254 243 243 263 250 239 254 274 287 294 291 288 280 273 269 290 292 283 266 266 177 148 151 152 162 212 302 146 151 163 167 161 142 326 338 176 148 120
231 234 237 246 250 265 252 258 269 262 182 178 180 145 139 137 141 263 268 296 283 185 161 185 159 216 156 266 298 295 306 300 223 121 146 144 161 127
250 244 228 242 267 274 238 262 284 294 311 319 328 338 323 307 346 316 297 296 210 134 134 138 145 210 280 296 249 222 141 125 171 130 126 132 217 194
247 248 253 257 254 278 284 280 289 306 313 281 381 419 427 428 394 368 303 281 322 282 300 304 279 231 237 142 138 135 132 126 126 255 138 168 314 330
248 241 248 246 251 288 296 292 298 302 304 351 345 341 339 339 335 336 356 410 336 296 319 314 284 280 263 268 297 281 282 275 275 291 162 265 274 296
257 254 255 255 269 265 299 299 345 353 341 329 326 321 314 315 318 324 330 337 343 385 382 316 321 309 280 263 280 273 280 264 280 284 262 261 272 296
242 263 258 262 280 294 297 315 352 307 316 322 313 308 329 375 399 402 377 323 329 337 357 409 336 318 294 278 263 298 270 270 275 272 272 266 253 258
255 263 266 272 290 291 302 355 323 292 316 308 336 382 375 378 387 408 436 392 410 357 334 366 394 380 313 289 281 262 271 271 277 275 252 249 258 262
257 266 268 284 287 290 335 339 277 313 303 367 361 356 361 369 377 409 425 451 464 478 464 338 362 396 357 306 277 270 255 291 276 273 264 258 239 244
258 261 268 290 284 300 345 286 317 303 347 355 341 345 363 368 376 396 420 439 455 462 449 467 336 369 411 318 293 268 264 264 273 270 262 263 252 261
249 262 275 284 288 337 321 267 304 315 350 341 338 350 355 358 373 396 418 440 441 417 413 452 471 342 383 378 308 285 263 258 279 271 264 257 254 249
250 258 281 287 284 331 270 309 297 350 341 334 331 342 345 350 367 409 428 439 422 365 382 405 556 548 356 392 321 293 274 275 261 283 257 263 250 247
263 274 281 287 346 307 290 296 346 339 331 327 320 335 343 354 388 428 445 446 463 476 502 520 446 477 334 370 373 305 282 268 256 260 268 249 255 247
273 278 280 291 326 263 300 296 341 329 321 323 327 334 347 365 455 460 466 474 483 501 505 511 512 441 471 341 372 323 298 280 262 252 256 271 248 254
273 278 271 334 288 302 289 329 334 324 320 321 328 341 351 453 479 477 480 491 508 511 509 492 484 487 390 509 359 376 309 285 273 262 253 246 262 259
275 274 299 321 258 295 296 340 331 320 322 322 330 346 449 456 456 471 499 507 474 464 458 460 465 476 488 387 447 365 336 300 282 272 259 247 250 249
278 265 333 279 302 289 330 335 325 319 322 323 339 403 454 507 495 486 455 442 434 438 455 471 487 498 507 523 537 355 366 318 294 277 261 254 251 244
267 346 322 254 293 298 336 334 323 320 320 332 355 464 512 497 474 443 428 431 434 439 453 463 477 493 504 514 531 536 346 366 300 288 269 255 252 246
278 334 289 299 287 327 334 330 319 317 321 343 459 512 482 446 427 422 424 422 422 436 443 459 474 480 489 501 517 531 538 352 317 291 284 263 255 242
280 320 254 291 295 331 330 322 314 315 326 349 440 467 443 426 428 420 416 418 428 434 444 450 453 463 473 484 500 517 531 361 361 318 290 277 254 249

GFSNE_2pvu_pres_126.txt.gz
Presure
233 239 240 241 241 240 249 261 260 277 274 274 273 282 288 288 287 288 297 316 327 325 306 302 197 291 152 293 159 149 291 150 136 132 151 156 132 135
234 233 237 240 249 234 236 257 249 262 244 249 266 277 281 273 285 283 286 284 283 289 294 305 319 326 251 138 174 200 148 139 129 151 303 116 104 140
245 254 246 243 246 245 258 239 268 250 251 270 271 241 250 272 284 289 288 286 276 282 289 285 285 260 147 300 315 167 154 134 134 137 135 139 152 137
238 240 241 250 260 257 238 254 252 263 248 255 279 250 242 252 287 292 303 289 284 298 291 284 290 290 282 280 283 290 285 140 140 307 150 147 125 134
239 248 249 245 245 249 253 257 246 258 258 252 278 272 239 240 290 295 305 312 316 310 303 306 295 220 298 290 182 172 137 253 158 284 263 135 129 134
230 242 246 242 257 263 205 215 266 275 269 268 287 296 306 306 313 405 408 295 291 322 264 147 143 225 290 295 303 287 273 264 183 221 311 260 306 364
247 250 248 241 239 248 272 270 259 269 272 285 298 303 310 330 382 368 355 345 347 352 359 381 297 327 270 150 144 164 290 243 162 158 300 309 316 385
251 247 262 248 242 254 262 274 271 272 276 298 294 303 321 362 345 338 340 335 331 333 339 336 341 362 335 301 310 300 307 150 144 133 127 133 267 155
254 260 245 251 260 255 245 276 272 266 285 299 297 292 348 332 295 331 323 318 318 322 321 325 328 337 344 373 359 307 290 298 296 272 275 299 180 133
242 256 264 251 261 270 267 272 266 272 290 302 296 349 319 281 324 316 351 377 380 386 395 413 411 405 332 338 361 368 295 295 300 281 266 318 290 284
193 260 282 252 272 273 269 278 279 288 296 297 350 333 277 320 318 376 368 368 360 376 380 402 409 448 474 414 334 362 351 309 303 283 271 296 287 295
250 257 281 254 271 278 277 272 285 288 289 284 331 275 317 317 363 357 350 344 348 362 366 384 390 439 470 487 499 339 369 344 322 296 275 263 288 281
260 256 285 278 274 276 274 285 280 294 276 335 274 311 308 352 349 340 344 342 346 355 364 382 419 447 470 483 470 487 341 415 322 302 276 278 287 265
262 266 279 275 279 275 279 279 291 287 316 321 313 302 348 345 336 332 334 335 348 355 366 391 469 478 488 489 437 461 431 363 384 305 279 268 274 263
254 276 275 275 274 273 276 278 288 278 328 304 302 331 350 339 326 329 332 341 350 363 394 474 476 481 490 499 468 445 484 351 422 301 291 271 274 281
262 275 276 273 269 273 273 285 275 335 264 303 311 351 344 332 330 334 342 359 401 459 461 467 475 489 501 506 375 412 489 475 390 308 300 280 287 281
278 277 272 275 270 272 279 279 302 287 306 303 346 345 336 329 335 353 462 470 479 488 475 473 504 523 526 524 531 392 532 540 371 356 294 284 270 262
276 272 273 271 270 273 282 263 321 307 299 342 341 335 328 335 393 541 521 512 506 490 474 468 468 473 486 490 495 507 513 524 355 404 299 292 270 266
278 272 272 269 270 281 266 331 267 296 328 339 332 329 330 446 491 470 462 451 439 436 434 439 448 451 453 456 467 484 503 505 440 388 302 287 268 270
273 273 271 270 277 277 310 262 300 298 343 330 330 320 367 440 456 448 442 437 432 430 431 443 452 455 468 483 495 506 520 540 543 377 307 292 270 254
275 272 271 274 272 258 284 304 293 345 332 330 319 336 423 421 421 420 419 421 424 428 433 443 458 470 476 487 499 508 523 545 567 362 332 290 278 266
275 270 269 274 259 292 286 293 305 337 333 322 319 369 403 398 396 397 402 405 414 421 429 437 444 450 465 475 485 501 519 537 558 350 376 290 278 271
266 266 276 279 268 254 301 292 346 334 321 313 325 400 388 374 372 373 373 373 376 385 398 416 430 441 451 462 475 492 513 530 471 412 375 296 285 272

GFSNE_2pvu_pres_129.txt.gz
Presure
236 229 237 232 242 250 251 258 260 250 253 273 253 250 263 247 250 279 278 284 292 322 327 307 308 204 341 298 317 240 136 343 283 126 129 140 202 144
236 238 238 244 217 255 238 245 249 238 262 252 267 273 259 257 263 256 271 286 278 268 264 277 274 282 285 323 303 292 283 283 290 185 246 141 279 140
240 249 231 234 253 243 237 257 234 250 247 247 259 273 215 260 270 261 254 269 287 289 271 280 283 283 281 278 283 292 318 312 260 291 172 133 254 169
224 237 245 235 247 243 264 262 254 252 247 255 249 261 276 271 274 282 267 269 281 293 298 302 282 279 285 303 302 271 278 282 296 309 338 289 129 288
216 231 234 237 234 257 253 250 256 258 251 267 269 257 270 279 278 269 277 282 298 301 302 311 314 317 313 304 308 307 301 303 284 281 287 219 228 154
208 225 241 238 251 248 195 255 248 269 279 258 265 273 281 278 282 271 280 292 304 307 308 326 393 355 391 395 385 328 317 304 307 302 290 280 283 289
212 239 239 240 250 262 261 264 256 257 277 270 271 272 277 287 281 271 298 304 307 313 366 366 354 353 353 357 359 365 332 273 254 308 312 299 286 280
228 186 223 176 256 256 262 249 259 261 272 290 276 280 280 292 278 298 301 304 318 351 337 333 332 337 343 344 346 352 355 351 296 328 148 187 278 290
211 234 227 254 269 266 248 255 278 271 270 281 278 282 280 286 293 295 305 329 347 332 326 301 323 328 346 349 338 338 344 348 353 367 308 322 253 144
219 242 173 253 272 262 254 269 290 260 273 282 283 282 285 289 290 303 320 348 332 302 325 334 376 378 372 375 377 389 398 388 346 343 366 342 323 307
228 220 251 265 271 263 254 267 274 285 282 282 285 281 287 289 304 289 344 330 315 318 359 372 365 362 357 360 357 355 373 393 411 369 341 366 329 311
254 241 260 268 269 280 266 274 255 286 280 283 284 281 290 301 284 344 301 321 323 365 360 362 362 351 351 349 349 354 368 382 405 425 376 345 379 316
239 268 265 271 282 297 274 260 286 285 280 279 279 285 285 281 336 294 318 322 359 361 354 357 349 342 348 356 348 353 367 381 398 440 507 346 363 373
271 277 294 266 315 273 259 275 281 277 279 276 283 283 279 333 279 313 336 354 353 352 346 347 357 363 377 390 404 395 401 409 476 499 505 510 350 379
298 295 331 316 269 268 265 287 282 278 276 281 283 282 286 277 309 331 345 346 349 342 364 531 531 508 491 485 485 477 481 477 487 505 508 502 346 377
303 329 315 220 303 266 282 281 277 275 277 277 289 279 276 308 325 347 344 341 410 490 477 487 493 496 496 501 522 533 513 503 514 530 540 519 352 381
320 316 291 278 276 279 279 276 276 278 276 287 272 290 308 309 347 341 340 443 458 458 455 454 450 453 451 449 455 469 502 522 526 539 545 531 418 391
332 317 272 284 285 281 276 276 278 275 285 269 282 308 304 345 338 337 422 422 431 439 441 442 441 446 446 447 460 464 467 481 500 515 525 457 446 399
319 273 282 286 277 273 276 275 273 285 265 278 308 301 343 335 328 398 392 388 386 388 394 436 447 454 466 463 456 471 493 490 489 499 510 446 447 398
298 282 286 281 273 281 276 272 283 266 321 304 297 341 332 324 391 372 362 362 366 370 379 386 402 441 453 464 470 475 493 512 528 519 404 443 442 389
295 285 281 272 280 276 271 284 269 304 293 295 323 331 325 356 366 330 352 354 355 353 362 374 388 397 415 451 463 472 484 500 521 535 544 530 354 383
287 280 278 279 279 270 283 272 279 274 297 298 336 324 317 367 332 337 335 339 348 357 354 364 371 384 398 410 429 458 477 492 513 528 544 563 358 351
276 283 279 276 271 282 273 265 258 300 296 340 321 321 320 345 326 337 330 326 332 344 357 359 362 377 387 398 417 429 444 479 502 522 542 561 357 325

GFSNE_2pvu_pres_135.txt.gz
Presure
207 209 203 204 216 212 207 227 215 223 213 234 236 246 245 246 251 265 280 286 267 266 253 282 262 273 302 336 348 292 272 271 276 274 284 281 255 231
194 199 200 216 219 214 195 220 217 211 224 233 232 224 238 240 248 258 269 284 281 267 270 266 253 291 254 262 290 315 329 334 311 308 305 280 278 277
201 205 208 213 203 198 214 203 215 224 225 234 234 235 229 240 252 254 237 279 284 274 266 263 278 260 260 282 257 260 265 288 297 308 303 329 315 293
210 218 224 225 218 221 214 195 204 234 219 214 230 242 240 246 241 201 205 274 285 277 270 274 266 281 268 253 288 282 159 253 260 270 279 284 300 299
202 215 209 205 210 223 228 228 234 219 247 233 231 241 242 234 248 265 275 279 286 278 268 276 296 279 280 279 286 258 289 287 257 193 261 262 271 283
209 204 214 225 251 242 240 235 227 224 226 211 235 236 231 239 255 253 279 282 290 273 286 268 307 297 272 280 301 273 285 272 285 291 278 256 267 266
223 220 217 240 239 269 262 251 255 255 254 241 247 245 247 252 255 272 286 295 294 287 314 284 293 273 272 283 292 282 277 292 300 304 307 309 300 292
205 237 228 218 231 251 254 252 273 229 231 238 248 250 275 258 251 288 297 295 298 314 289 280 270 300 297 297 293 293 292 300 304 309 315 321 320 324
230 224 249 257 254 248 241 263 274 274 227 231 271 246 255 281 305 292 320 292 313 297 281 272 264 289 290 291 291 296 301 308 313 324 325 326 325 324
242 230 250 263 246 252 260 265 252 251 252 317 241 242 264 308 311 331 318 309 301 278 275 259 288 289 283 287 294 296 304 317 324 325 349 346 339 368
276 276 271 293 305 323 316 312 334 320 319 277 309 322 313 326 334 318 305 295 304 296 291 290 286 279 284 288 295 305 311 346 344 341 347 352 354 357
356 357 336 364 304 362 368 354 353 339 324 320 364 360 339 325 315 308 313 299 293 288 287 282 286 294 290 299 293 333 337 380 387 391 410 398 403 410
322 336 327 355 318 374 352 350 366 345 378 350 349 338 322 311 319 297 286 288 285 279 284 289 288 305 292 333 353 384 412 422 415 464 528 529 537 421
314 349 360 334 337 321 340 346 355 371 316 297 332 319 315 302 295 283 288 281 285 291 291 305 293 321 350 380 385 408 407 403 416 440 518 507 504 515
324 316 338 324 324 327 319 350 360 333 321 282 320 310 299 286 285 289 280 285 282 297 293 333 321 354 374 370 360 371 385 395 408 430 469 516 500 490
322 308 343 331 335 307 375 356 340 338 324 314 297 280 286 283 284 280 279 281 288 316 315 334 341 328 349 346 366 371 372 380 392 416 448 496 504 486
329 317 341 354 385 338 310 285 335 294 310 287 295 281 281 284 278 278 281 280 329 304 342 333 334 340 345 335 346 350 363 374 382 402 427 449 494 504
318 317 301 308 373 356 343 344 328 307 299 292 278 282 282 278 275 280 278 323 300 343 325 316 338 342 325 333 341 348 357 369 384 394 410 433 453 489
305 310 296 279 359 348 328 316 304 299 284 279 287 279 277 276 278 301 313 294 344 316 310 341 326 319 327 327 327 340 358 365 386 391 404 425 444 460
299 305 301 358 272 328 288 305 294 279 281 291 279 274 279 275 331 307 292 350 317 305 332 329 319 316 323 320 323 331 355 366 388 399 399 420 442 460
302 314 295 338 321 312 304 294 281 285 285 278 273 279 273 329 301 293 352 314 301 315 331 317 316 311 320 320 321 333 350 365 393 412 407 423 438 459
300 296 323 326 313 304 295 286 290 282 277 272 278 270 327 300 293 347 313 299 320 327 327 317 308 318 310 315 324 338 347 362 382 420 416 431 452 471
304 298 339 325 307 298 290 294 282 277 268 277 267 328 300 293 356 316 302 299 314 333 320 312 293 309 305 307 319 336 348 362 380 415 418 431 454 480

GFSNE_2pvu_pres_138.txt.gz
Presure
197 203 192 194 203 205 213 216 215 212 224 230 221 225 199 223 223 229 230 238 250 249 255 237 270 281 302 276 256 327 284 261 253 265 255 263 244 234
205 205 202 185 208 206 206 218 207 210 217 222 202 226 219 221 238 240 239 239 248 239 245 257 276 254 287 301 281 269 290 254 261 253 251 252 242 240
194 192 211 193 206 215 202 234 235 245 233 235 225 231 249 258 245 242 237 236 246 241 248 236 258 260 286 288 289 282 269 301 312 299 277 274 267 265
216 213 222 208 204 202 211 205 203 218 213 209 218 256 242 263 260 249 274 241 258 222 232 264 259 262 276 290 289 280 270 279 267 267 310 277 244 244
195 202 226 222 227 229 216 230 233 226 244 246 239 229 243 261 254 258 246 257 254 249 257 255 258 282 233 293 293 287 270 273 275 280 269 288 301 309
195 214 218 238 242 254 242 252 244 243 256 258 249 259 264 245 251 264 261 267 253 242 257 259 277 267 284 301 303 205 283 271 278 284 280 285 265 280
246 223 247 249 232 238 232 242 246 268 267 275 249 259 287 288 264 254 262 277 232 278 253 251 255 298 307 299 304 319 301 287 276 278 298 282 283 280
204 184 245 193 218 266 228 292 261 319 306 265 342 263 307 289 315 315 307 309 314 321 294 315 281 313 321 321 332 322 311 305 290 302 299 291 280 283
194 257 230 236 276 265 306 279 273 296 310 345 332 343 316 331 330 334 333 318 320 300 313 316 342 341 324 319 320 305 296 290 285 280 275 305 307 303
236 260 245 227 308 288 312 276 327 350 328 326 379 373 371 363 353 347 336 326 325 353 327 334 329 314 310 303 301 298 308 297 288 276 269 297 299 302
302 251 312 303 285 344 335 325 319 368 374 333 329 354 359 350 344 332 332 347 345 335 326 308 314 302 299 307 301 299 303 302 298 299 300 300 303 309
337 348 322 314 309 327 334 321 309 332 344 336 319 319 327 339 385 379 351 337 326 317 312 309 315 309 290 285 287 289 287 292 303 307 311 314 316 320
371 343 301 322 330 309 322 316 330 328 366 339 379 318 375 362 344 309 305 319 311 316 310 298 289 292 289 275 275 287 291 299 302 345 326 392 421 424
291 291 306 334 319 327 318 322 324 350 333 349 337 352 344 333 328 323 324 317 306 292 289 291 286 284 283 284 287 284 313 323 355 383 386 372 385 388
287 310 341 340 334 322 321 328 318 316 342 321 294 284 334 327 320 315 302 297 286 289 291 286 287 287 287 293 317 310 349 354 371 362 355 367 366 373
307 286 326 331 323 316 309 318 304 312 329 350 321 343 318 318 302 303 293 282 288 286 286 287 292 295 317 303 341 326 352 346 339 338 348 358 374 375
320 329 324 330 317 309 305 309 311 287 351 339 338 298 312 299 293 287 285 288 281 283 289 291 331 304 332 333 314 349 337 328 328 335 343 365 375 386
324 336 315 319 264 314 304 315 309 356 318 321 317 301 299 289 287 291 280 281 282 283 328 307 300 353 318 323 350 330 320 320 323 332 358 372 381 392
320 336 302 326 265 311 302 304 350 341 319 311 301 292 286 288 283 279 281 284 328 316 297 298 341 312 300 340 329 315 317 318 314 336 355 368 383 394
327 321 302 320 272 306 301 305 295 321 305 299 294 287 292 276 278 280 280 334 307 294 310 326 311 302 324 346 316 306 309 309 315 333 352 365 381 396
330 318 298 288 311 308 298 297 324 312 301 297 289 293 280 276 280 278 325 307 293 337 323 307 304 329 339 325 303 300 301 308 323 335 348 366 380 394
328 322 316 273 314 307 293 334 320 308 298 290 294 282 276 279 280 323 307 291 333 323 308 308 330 317 344 321 301 303 302 312 319 330 348 370 387 396
315 311 314 276 310 308 290 326 314 303 290 294 283 276 280 281 330 303 290 308 322 312 323 341 317 345 328 314 303 299 308 310 313 322 341 369 390 406

GFSNE_2pvu_pres_141.txt.gz
Presure
192 199 191 202 204 219 215 209 200 195 196 209 201 206 205 207 210 212 230 221 241 226 234 244 261 246 246 251 254 255 264 286 294 262 296 321 295 228
198 200 214 213 212 191 195 189 195 201 217 219 234 227 227 241 241 239 244 253 234 245 249 248 244 257 253 242 239 255 260 255 295 301 262 275 310 328
207 207 200 193 194 206 216 220 215 205 233 233 237 237 247 246 258 255 243 233 243 253 245 238 245 256 259 251 263 250 254 233 277 278 303 288 255 282
193 198 194 213 204 196 174 229 213 231 215 236 241 245 254 248 254 247 247 248 250 241 249 245 256 265 265 271 263 253 248 265 270 273 302 301 286 270
194 197 213 222 217 230 199 196 212 242 257 270 285 256 242 267 280 306 287 265 256 279 288 284 253 293 265 248 265 271 231 252 251 263 271 305 295 282
212 222 209 221 250 212 205 245 232 249 317 245 249 286 276 278 335 309 336 278 296 322 305 288 304 289 309 242 248 259 238 261 288 267 269 285 222 301
241 228 216 218 200 234 227 235 292 311 342 350 340 332 312 295 305 322 315 299 306 332 351 345 345 290 293 311 316 240 242 320 249 281 266 276 308 300
230 243 249 203 253 223 253 225 341 316 378 361 323 311 319 343 335 330 346 355 343 333 316 346 336 328 333 320 323 317 327 303 338 279 299 317 304 309
245 244 258 230 222 233 264 288 340 299 327 305 313 338 338 334 326 382 377 338 326 323 348 350 362 355 346 341 327 328 327 303 318 324 331 330 317 303
222 254 224 231 237 269 285 278 343 281 297 309 327 312 324 319 315 329 349 347 341 364 358 340 341 337 328 327 283 360 339 345 333 326 320 314 324 323
236 256 254 235 273 284 287 365 336 313 333 336 325 327 323 357 344 372 332 316 326 331 342 337 323 350 347 342 339 333 324 319 311 312 312 303 306 309
249 263 260 273 273 339 354 363 327 319 343 335 328 320 323 326 351 340 354 333 309 352 371 369 342 296 321 322 317 306 305 310 314 313 311 311 313 315
278 280 281 293 319 338 357 353 328 324 332 322 316 314 318 319 324 348 317 367 350 339 336 337 326 307 306 303 304 301 291 291 292 293 298 301 302 302
295 283 301 287 374 356 349 340 325 321 333 316 293 304 317 335 308 372 350 324 332 321 323 320 304 300 295 280 276 288 293 296 298 300 303 307 303 299
297 294 333 329 334 346 343 334 322 320 325 299 306 307 320 306 359 350 340 338 313 321 304 296 298 288 283 278 286 284 285 293 294 294 336 323 345 338
302 304 311 317 357 333 337 324 318 309 325 278 308 315 310 362 339 315 336 327 303 303 294 291 287 286 286 281 281 284 287 335 314 309 350 326 359 344
325 327 303 343 377 331 335 320 322 308 324 265 308 310 306 347 314 330 307 303 296 287 289 292 284 282 285 285 312 316 305 308 344 319 340 349 335 324
310 278 307 331 353 329 332 322 308 302 325 304 305 322 319 325 316 302 300 293 284 293 286 285 288 289 280 310 299 301 343 322 309 356 344 330 317 314
280 300 340 330 337 336 345 333 317 314 279 315 302 338 325 310 304 297 295 286 294 283 284 288 287 315 309 294 340 325 316 313 339 346 331 319 317 311
330 334 341 343 322 339 340 321 327 320 276 312 298 324 318 304 296 298 290 293 283 281 285 303 327 301 298 333 320 306 334 334 359 335 315 316 309 315
443 417 402 353 332 335 329 319 321 290 305 302 294 318 309 302 296 291 291 285 282 287 323 307 295 313 326 325 309 328 324 335 340 324 312 305 314 316
425 426 418 395 334 336 329 306 309 285 307 295 325 314 306 294 288 290 283 283 292 327 299 290 329 322 321 312 333 349 319 348 327 311 306 308 319 320
436 427 412 397 343 338 316 318 289 305 301 290 318 310 300 290 288 278 283 301 317 293 300 326 324 317 313 340 350 346 326 342 318 303 299 310 318 322

GFSNE_2pvu_pres_144.txt.gz
Presure
194 192 202 211 205 190 199 199 196 192 202 214 211 220 225 207 218 236 219 235 240 246 219 228 244 243 252 260 247 225 234 246 244 264 231 258 267 232
192 205 212 205 188 188 193 196 204 218 205 218 210 213 220 228 246 246 221 243 240 233 255 234 243 256 256 251 228 246 241 231 256 257 246 238 260 254
201 198 191 200 204 220 227 227 232 230 238 226 245 214 237 242 201 234 242 311 283 276 252 280 223 235 259 242 252 256 239 252 250 247 253 262 242 259
198 220 194 224 206 212 200 205 214 207 204 238 210 215 259 266 278 285 363 338 352 336 327 319 302 319 295 285 303 253 274 249 248 259 255 261 248 240
213 204 204 208 209 234 233 240 239 218 253 211 258 249 254 241 289 310 339 390 270 348 296 330 287 303 332 317 307 305 294 289 279 259 284 259 256 266
231 219 219 217 233 237 224 233 253 245 239 260 266 273 271 285 349 363 305 302 318 329 314 321 318 322 299 375 310 309 297 295 300 287 293 282 280 261
229 228 233 236 240 252 228 255 252 251 231 206 267 298 314 249 378 349 314 323 338 346 343 340 345 335 338 358 347 285 358 325 331 297 293 291 296 300
215 194 236 240 236 234 222 213 208 271 214 235 249 342 380 374 362 336 332 341 329 326 326 325 327 313 393 335 326 351 341 323 352 283 331 300 289 249
234 218 236 240 236 237 237 223 287 278 257 297 302 297 313 366 348 330 344 341 335 332 329 353 356 320 357 359 361 362 325 363 353 349 300 338 328 322
240 236 235 242 238 244 198 245 291 277 268 302 323 372 363 355 341 339 338 332 325 324 334 351 351 370 327 326 331 357 352 351 350 349 343 339 334 330
240 243 245 248 258 248 281 286 293 286 303 318 282 319 355 343 337 329 336 326 313 317 324 328 344 347 336 329 325 340 345 333 327 326 325 325 327 348
259 248 241 239 284 271 288 302 293 302 316 287 313 353 350 344 331 335 332 307 313 314 331 319 339 378 369 372 372 353 350 342 336 334 335 332 328 325
235 233 246 289 303 291 272 287 299 311 313 329 296 354 342 334 328 326 318 318 316 314 322 370 353 327 340 338 344 336 336 329 322 321 319 314 307 306
294 285 286 301 298 301 292 296 308 317 299 309 323 351 337 321 325 324 325 320 318 310 353 340 332 334 326 315 318 325 318 313 310 309 305 301 298 297
305 307 297 301 309 302 314 312 325 296 302 279 356 344 333 320 318 314 319 319 324 355 344 338 333 313 313 297 292 299 302 301 299 291 289 291 295 299
310 311 318 300 287 313 300 324 341 305 332 304 331 338 325 326 316 315 313 314 307 346 343 340 321 305 300 294 289 288 291 292 299 299 301 301 300 295
286 287 291 286 286 292 325 305 298 321 326 308 329 333 334 326 313 295 314 358 341 329 322 311 302 296 290 282 287 289 285 285 291 296 296 331 317 312
298 298 302 307 316 311 324 323 336 331 307 340 330 329 334 314 313 287 307 307 321 314 302 299 299 289 283 290 281 278 286 286 325 323 308 306 339 332
323 326 326 354 344 463 453 439 427 402 370 344 325 340 325 310 295 311 305 328 306 300 295 297 295 296 286 278 281 286 329 313 303 303 339 332 321 313
538 528 515 495 477 459 445 431 415 397 368 340 327 330 318 302 286 305 299 317 302 297 296 293 297 286 278 283 329 304 305 311 337 329 328 317 325 344
497 499 490 476 459 447 437 423 403 390 354 334 321 322 305 289 308 318 320 306 300 296 290 291 278 277 313 315 296 313 325 328 330 328 321 344 337 341
483 477 465 455 443 429 424 412 397 379 347 322 326 312 295 296 301 301 315 304 298 292 285 273 286 323 299 308 336 328 320 319 344 362 358 362 367 334
457 463 447 433 425 420 414 405 384 368 326 329 314 298 290 301 294 317 307 295 291 281 277 310 300 292 333 331 354 375 364 352 330 333 359 379 386 370

GFSNE_2pvu_pres_147.txt.gz
Presure
206 206 201 196 202 189 212 203 212 212 207 215 207 209 207 215 219 224 227 217 232 240 237 215 209 233 250 231 310 240 255 232 261 265 230 261 240 224
191 193 203 206 204 198 207 204 222 229 228 227 209 238 240 235 203 258 253 262 266 228 236 228 255 264 286 238 351 335 277 264 269 256 256 236 238 229
207 211 208 195 220 214 187 221 229 233 221 223 215 247 237 253 255 262 270 226 243 290 300 256 271 290 381 372 345 351 238 248 267 235 259 244 254 251
205 192 207 207 201 214 207 194 222 229 221 231 243 248 242 250 242 244 246 300 300 243 246 283 385 374 356 324 359 367 352 322 309 277 253 254 239 258
195 218 225 220 186 203 211 213 209 224 197 227 235 243 244 241 244 242 274 299 309 321 370 387 375 359 332 307 301 359 349 355 326 308 298 298 252 281
198 209 198 213 214 212 214 217 213 232 246 221 244 229 253 233 264 288 290 311 314 303 385 381 367 336 329 336 327 333 320 322 345 344 284 307 302 262
185 223 222 214 229 230 234 218 225 214 253 260 265 256 252 271 250 295 310 321 304 337 378 368 351 335 356 349 339 336 331 344 333 335 312 294 307 318
195 191 211 227 230 232 234 234 238 247 268 270 275 252 247 290 262 300 291 309 285 332 363 353 348 343 353 347 339 335 350 327 324 336 332 360 293 349
212 199 210 223 231 232 237 237 185 253 267 291 242 241 276 287 290 282 315 332 332 340 357 344 334 343 342 333 334 331 349 361 331 339 389 336 347 361
221 217 222 222 233 238 256 242 251 247 283 273 293 286 292 295 296 316 325 317 317 364 349 337 331 333 322 304 330 323 340 358 366 345 353 367 337 322
218 232 233 245 243 246 279 277 267 307 299 300 297 291 282 299 304 305 326 307 288 363 339 337 324 321 289 329 332 314 340 384 399 325 324 335 364 361
230 247 254 242 262 273 255 318 314 309 302 296 302 302 310 306 296 293 328 297 290 351 332 331 318 324 318 325 329 309 385 383 385 314 316 325 349 349
255 259 241 239 293 325 316 303 288 292 287 308 308 314 301 306 292 322 297 327 326 341 325 323 316 322 322 313 362 363 355 344 358 348 349 350 347 340
287 238 291 315 277 308 304 296 302 298 307 292 290 265 282 281 288 302 299 330 325 333 325 320 315 316 308 346 344 348 343 337 337 333 331 328 329 319
313 320 301 300 299 292 290 289 296 299 283 281 284 279 279 295 314 287 308 323 325 328 329 318 296 306 304 338 337 336 328 330 324 324 324 318 311 306
285 301 301 303 302 299 282 279 287 293 290 294 298 302 287 281 295 313 326 306 328 331 330 317 282 310 342 343 333 326 324 316 308 306 304 301 298 295
316 313 308 301 301 313 319 320 318 321 322 323 319 311 303 334 363 356 321 338 324 334 317 313 302 338 328 326 313 304 305 302 303 297 295 295 296 292
320 341 489 547 536 537 532 520 506 488 467 453 458 443 423 415 401 381 340 331 327 320 316 291 304 320 315 299 295 298 297 292 296 300 300 290 282 289
525 526 530 535 535 504 510 496 485 476 460 461 443 428 413 401 386 362 341 324 322 309 302 299 321 316 305 295 297 292 292 299 297 292 289 287 290 290
498 489 507 493 490 488 482 469 464 457 443 438 425 413 403 386 365 344 325 318 311 305 283 315 305 306 300 295 287 296 291 284 286 293 287 310 304 312
467 165 462 455 459 463 469 456 446 443 431 419 407 401 385 364 348 329 318 311 301 281 300 290 312 305 301 293 287 280 286 305 311 301 322 340 332 329
471 435 442 451 436 443 442 437 431 422 411 405 395 380 366 350 330 317 311 300 279 297 307 316 307 296 291 279 280 308 303 299 335 382 396 390 384 378
447 436 459 428 423 427 427 421 411 402 395 384 378 369 349 323 315 307 296 279 294 307 315 302 296 284 285 292 305 293 333 350 343 343 341 346 347 343

GFSNE_2pvu_pres_150.txt.gz
Presure
202 200 191 213 213 205 182 209 203 205 210 195 208 234 203 209 236 217 229 239 234 227 234 243 246 253 246 244 258 279 246 226 245 253 256 265 276 226
194 210 202 213 193 205 198 210 207 216 203 207 196 220 220 211 206 219 230 230 250 224 225 236 263 243 238 237 256 331 289 283 312 265 260 257 228 289
212 206 189 188 200 208 194 200 192 202 213 189 219 225 220 224 235 238 231 194 243 260 276 271 265 278 265 319 263 328 322 420 263 408 343 284 335 309
186 191 183 193 169 214 196 210 192 194 193 219 200 205 199 239 242 237 234 239 262 275 270 276 252 251 308 309 336 374 379 398 388 383 375 382 367 379
199 177 190 191 204 212 216 224 214 212 214 229 212 212 225 230 247 250 250 245 256 282 276 243 252 282 308 312 348 355 380 371 365 355 350 326 321 340
188 188 184 192 178 193 186 225 223 193 227 219 228 234 228 234 244 250 272 273 267 241 260 286 284 304 305 326 311 346 369 356 342 338 341 329 296 375
177 208 180 219 213 196 205 191 234 228 234 232 231 231 241 258 252 256 277 288 289 290 289 293 301 302 319 320 329 369 359 353 349 356 357 357 359 316
173 209 193 203 204 215 219 235 242 230 231 236 245 253 260 253 254 296 254 296 296 236 287 295 295 307 333 352 303 367 350 338 346 347 345 348 344 345
220 208 211 200 208 232 236 238 232 228 238 249 261 284 253 246 269 306 291 312 308 298 289 299 306 313 305 342 317 358 340 335 349 345 337 338 339 343
179 223 219 220 225 247 235 237 238 244 251 271 291 256 262 325 302 315 307 298 286 286 303 300 315 314 306 315 326 353 333 328 335 320 310 329 340 341
213 228 239 241 238 231 241 249 243 262 245 249 245 291 294 287 282 295 304 309 295 302 301 313 283 287 329 314 337 347 329 329 332 281 333 346 330 344
236 231 234 245 243 238 258 243 251 238 250 276 298 287 275 292 290 289 285 288 286 299 278 275 276 284 291 313 333 339 328 318 306 336 325 335 328 375
234 235 251 258 270 264 240 285 284 260 294 283 283 299 304 302 280 294 297 293 293 283 278 272 274 296 286 315 324 335 330 325 326 337 372 379 390 393
239 228 280 246 251 254 258 264 299 299 278 311 306 309 306 300 304 294 286 274 274 273 275 280 274 287 299 315 325 331 326 325 322 355 353 346 364 356
272 248 274 303 306 298 297 293 267 320 311 309 305 301 302 300 302 303 298 296 294 293 284 300 300 293 315 306 323 330 320 289 360 350 337 334 336 339
257 288 290 287 323 332 348 332 363 531 533 529 527 534 504 457 415 381 369 355 317 307 306 300 295 305 318 316 326 319 325 290 359 344 328 318 320 308
303 336 342 338 415 515 525 509 516 522 506 503 508 504 490 480 422 421 458 455 463 445 359 404 393 367 295 314 322 322 291 359 348 344 326 315 314 307
350 457 492 485 498 490 500 489 511 507 501 487 483 486 468 465 438 431 439 448 436 414 400 387 375 338 315 317 308 311 325 332 331 317 301 298 295 293
474 468 480 482 467 465 453 471 463 470 481 472 454 464 465 443 424 435 421 421 406 395 380 372 346 323 317 306 304 279 319 321 314 301 300 298 292 289
450 472 472 455 446 471 461 461 442 450 456 462 448 442 442 424 427 416 408 401 387 374 367 344 326 313 302 301 280 310 318 309 307 301 300 293 295 297
469 478 451 443 428 440 459 426 435 443 453 444 433 425 419 410 405 399 388 376 368 356 339 323 311 306 299 281 325 320 314 307 304 297 295 292 285 286
489 448 436 438 444 440 445 415 424 432 428 423 414 409 402 397 389 377 369 359 343 330 316 308 304 290 293 303 312 312 308 301 292 282 282 310 306 299
450 439 442 438 437 442 413 414 412 416 411 410 404 397 391 376 369 360 344 330 315 311 306 298 286 294 313 315 304 298 291 285 289 314 297 297 338 338

GFSNE_2pvu_pres_153.txt.gz
Presure
212 215 205 181 198 207 202 180 193 187 201 174 177 193 198 191 199 206 205 219 210 225 223 223 215 229 238 241 232 248 275 274 276 289 250 252 307 256
202 202 203 195 174 197 188 193 181 187 197 179 199 193 189 203 220 225 224 233 224 230 224 226 224 230 251 226 266 261 256 287 294 265 261 287 304 311
207 191 201 206 188 190 191 195 188 196 203 210 193 211 206 196 212 213 210 237 225 231 229 228 230 249 266 259 283 268 281 265 245 257 300 327 342 378
199 188 184 192 200 190 197 190 201 190 202 198 203 195 191 201 205 221 232 237 236 235 235 247 254 280 278 252 263 288 289 285 296 306 321 329 288 360
198 198 193 188 181 197 219 209 191 186 192 215 201 200 209 211 230 227 236 233 226 233 242 244 284 284 242 253 289 295 295 291 304 219 313 335 341 339
196 188 200 178 188 200 201 173 199 207 196 205 195 207 221 219 237 235 234 231 247 243 254 277 291 256 256 296 294 300 298 299 298 319 335 353 333 387
178 198 181 195 212 190 181 196 212 216 208 223 228 235 227 226 232 241 257 250 248 253 264 245 243 274 283 309 298 309 306 300 307 303 337 349 311 373
196 193 194 200 183 201 191 218 210 204 217 235 223 227 236 239 240 258 294 279 257 259 233 247 285 315 294 280 300 305 305 289 313 333 319 329 345 360
194 193 193 185 206 217 169 218 197 241 230 227 241 240 240 236 246 247 245 286 240 283 251 266 290 274 293 301 308 304 295 303 310 316 299 331 366 350
182 216 213 212 216 218 206 221 237 240 239 247 266 245 245 271 300 308 266 273 271 262 274 291 259 277 291 291 284 295 296 308 276 293 298 325 357 344
202 204 225 230 236 237 237 239 240 260 265 260 250 253 282 275 271 294 306 307 301 298 297 271 299 289 294 289 288 280 293 272 282 284 301 322 350 341
224 219 232 243 237 239 247 269 266 256 252 262 270 262 268 284 288 293 285 289 290 287 282 320 305 305 305 295 289 291 287 271 282 282 296 319 344 343
247 251 256 276 306 314 302 253 240 263 273 256 266 282 294 302 296 314 312 319 308 317 313 312 310 306 307 296 285 278 270 275 280 301 298 319 341 331
245 259 262 244 245 260 254 261 262 267 302 327 334 337 335 464 460 394 371 373 298 325 316 319 307 292 301 290 286 281 280 278 290 295 311 315 336 330
272 240 247 253 266 272 273 341 351 351 492 513 528 541 554 555 540 506 510 470 434 418 396 364 348 332 321 313 320 302 298 287 300 302 310 320 330 319
270 264 275 320 341 348 372 481 464 480 491 488 506 517 525 530 508 497 479 479 442 409 401 428 430 406 380 347 335 341 306 307 305 319 309 330 318 310
309 339 349 346 408 471 458 442 462 478 477 465 472 473 487 489 483 479 462 506 449 414 400 415 423 433 454 468 406 330 314 306 312 338 323 316 320 320
350 463 501 483 473 450 434 468 460 448 459 468 475 476 484 479 466 471 436 472 428 408 412 414 423 444 441 440 424 406 389 373 350 323 325 305 311 341
470 460 491 467 447 438 483 452 439 438 451 451 431 453 472 460 443 447 460 413 392 398 408 424 408 415 412 394 395 374 361 350 325 323 307 293 324 331
501 485 463 448 469 472 445 437 447 447 448 416 427 439 465 424 434 459 435 410 420 415 409 401 396 391 383 365 355 352 343 326 318 310 300 322 309 312
467 419 452 483 455 441 440 440 435 435 410 414 426 454 433 431 424 444 425 407 403 401 388 380 373 361 350 343 339 330 318 314 307 294 300 313 307 306
475 472 454 445 434 430 433 434 439 405 407 417 420 414 423 412 407 403 401 391 383 374 365 357 349 336 330 322 316 312 307 295 284 314 319 311 306 304
458 451 446 432 425 428 434 438 400 402 404 408 408 408 400 393 390 382 374 364 360 349 341 328 318 313 308 308 305 298 284 305 312 310 314 306 301 302

GFSNE_2pvu_pres_156.txt.gz
Presure
216 235 220 207 212 222 211 185 181 191 198 179 195 190 202 181 203 179 187 195 202 211 192 208 225 225 213 219 228 233 233 230 241 246 264 279 267 265
239 227 220 209 215 195 208 185 197 192 196 198 190 200 205 202 191 206 187 204 196 194 209 203 219 223 219 228 221 240 235 233 252 253 291 283 261 279
229 222 204 203 204 184 204 194 195 200 202 202 201 197 183 188 201 187 203 216 207 207 208 203 223 221 232 238 239 235 243 243 254 275 295 284 252 282
204 202 206 193 183 201 194 202 183 201 210 186 182 192 193 206 209 204 203 205 205 226 237 220 224 227 231 228 243 247 257 268 277 299 259 250 285 296
186 194 190 194 195 192 193 192 206 194 191 202 204 205 213 201 208 205 210 219 214 219 217 216 244 235 242 249 244 255 296 295 238 227 249 288 289 302
182 194 193 182 199 202 192 181 190 196 202 205 204 206 209 214 214 221 234 227 227 219 246 241 241 256 269 245 265 228 239 238 236 250 294 307 304 303
184 194 189 195 193 190 203 183 222 213 207 213 204 219 189 217 221 234 231 239 244 236 234 245 275 260 244 290 308 296 244 244 245 265 320 319 290 315
192 188 193 185 184 217 187 201 195 195 225 225 202 236 238 239 244 229 260 256 266 261 289 266 241 249 248 254 258 285 289 291 274 281 264 273 302 311
187 189 183 203 208 217 218 235 238 201 241 233 247 246 240 259 271 292 275 274 269 264 242 239 245 271 253 270 278 281 299 295 285 291 269 294 297 289
198 190 220 221 236 245 239 221 231 237 279 301 281 291 281 281 293 244 256 261 253 252 278 277 254 256 264 281 291 297 281 272 291 266 295 295 291 283
204 242 176 204 214 226 245 237 247 301 299 254 255 284 234 268 258 256 268 282 288 277 277 305 292 294 296 304 305 284 297 306 281 275 304 291 293 291
136 217 215 248 248 232 244 320 304 256 285 243 243 255 271 326 333 335 343 349 351 349 339 338 331 328 328 330 324 325 315 298 311 309 301 297 297 287
233 235 247 314 302 264 280 273 270 259 273 275 352 356 355 408 494 488 493 501 508 516 531 469 417 382 371 343 333 326 310 320 313 303 298 301 292 283
250 260 303 277 284 276 265 251 257 334 360 363 487 472 462 456 484 494 500 527 546 552 545 484 511 446 412 396 375 346 339 316 315 313 295 296 288 271
307 292 266 268 269 270 278 349 359 462 465 468 461 446 459 468 476 491 500 521 533 483 526 466 478 431 427 417 415 400 376 355 340 301 300 289 285 279
273 273 266 277 339 359 381 501 494 477 460 447 445 472 454 449 408 489 507 475 489 490 521 444 440 422 400 407 417 429 435 398 367 357 348 311 291 282
270 274 329 361 402 493 512 488 461 443 441 469 452 450 452 266 454 433 491 460 470 506 449 430 419 413 408 396 401 408 418 433 443 429 388 349 316 304
353 362 397 444 506 475 433 453 475 484 459 443 437 439 443 433 423 440 458 431 448 436 431 435 413 389 381 393 401 405 413 415 427 428 420 400 363 301
359 461 468 468 425 465 497 474 459 442 442 440 432 432 435 417 428 454 433 422 432 442 418 442 403 403 405 402 390 404 418 415 424 418 415 396 382 306
432 492 441 458 488 465 455 448 436 431 432 430 439 424 410 423 464 424 425 426 452 443 433 407 393 402 391 390 385 391 394 394 401 396 380 367 352 337
465 433 501 466 451 448 441 432 427 434 434 441 407 407 413 420 434 420 414 437 437 419 410 400 398 393 384 378 377 377 380 373 365 359 350 339 329 323
434 471 465 444 431 435 435 435 435 442 410 401 405 407 411 408 410 407 410 412 412 408 390 381 371 365 364 365 365 360 351 345 340 333 324 318 312 311
463 455 434 443 440 444 448 449 455 407 407 407 398 397 399 392 386 380 376 369 363 359 356 351 348 349 348 344 336 329 324 320 315 313 313 310 306 298

GFSNE_2pvu_pres_159.txt.gz
Presure
187 200 213 228 253 229 218 214 181 207 185 193 201 199 200 194 193 204 186 190 205 205 187 207 208 200 211 202 195 211 217 205 219 220 212 226 233 243
189 207 225 252 226 224 209 194 198 196 197 192 194 202 191 179 203 182 201 195 199 205 207 207 210 206 208 205 209 215 205 208 216 228 226 230 246 246
179 222 250 233 216 205 208 194 189 188 195 184 202 186 186 201 198 194 204 203 200 202 203 215 216 209 212 210 207 221 222 224 225 227 232 246 244 248
217 247 235 219 210 182 208 195 194 195 192 181 200 194 188 190 198 204 207 204 213 212 212 213 221 216 216 227 215 220 219 229 228 232 239 244 251 257
224 234 212 205 181 198 196 196 181 199 190 199 190 202 204 188 210 213 218 218 220 220 219 226 230 229 239 239 233 233 235 225 250 249 260 238 258 221
229 209 201 195 200 191 202 189 194 195 195 204 211 216 212 202 218 214 220 225 222 252 230 229 237 238 238 239 241 237 244 243 247 309 304 290 245 243
202 203 194 192 203 184 200 195 206 194 212 225 236 238 239 246 238 241 246 230 213 221 221 235 255 297 284 278 276 293 251 278 262 260 258 260 243 251
195 194 198 205 214 208 204 195 226 224 215 128 227 227 229 239 265 340 324 332 285 290 299 290 259 255 245 281 231 262 242 241 243 247 245 240 276 259
193 197 203 186 207 180 239 242 240 224 240 252 245 211 311 277 274 281 284 290 296 298 274 258 257 248 253 254 251 256 256 254 248 245 253 273 244 248
203 212 202 202 158 235 240 243 237 263 276 274 298 272 285 297 278 276 278 276 285 280 273 280 313 316 302 307 313 326 323 305 288 290 266 264 269 268
186 203 208 218 234 247 289 246 241 290 286 291 295 304 281 290 269 275 321 353 358 360 438 437 433 429 365 344 328 329 326 326 324 312 302 294 285 279
207 207 221 220 248 301 278 290 289 277 280 265 264 278 308 348 350 368 499 491 491 498 491 474 490 496 513 524 440 377 352 331 326 324 319 313 305 299
225 238 273 260 247 265 276 273 275 275 277 286 331 359 396 456 456 458 461 461 457 456 472 489 511 523 568 558 514 517 423 369 359 348 323 316 316 312
289 295 255 276 275 261 262 326 337 360 368 375 465 526 509 492 473 457 444 455 461 458 477 536 528 537 564 530 533 516 474 456 395 369 354 345 328 318
256 268 303 293 271 246 354 358 362 394 488 502 455 438 432 445 442 465 446 444 449 456 501 459 443 481 477 493 457 475 455 434 427 408 374 362 351 343
296 297 271 278 357 362 362 381 460 490 449 442 486 482 478 469 447 441 443 440 447 427 434 469 467 465 449 439 443 426 404 395 414 425 433 398 370 357
292 257 303 366 366 385 494 490 443 458 495 482 463 453 447 443 438 434 437 435 428 462 459 489 460 434 415 428 416 414 404 397 400 407 418 423 433 398
256 366 368 368 518 505 457 434 476 462 456 452 439 432 435 433 447 417 409 420 464 438 433 444 440 417 407 400 409 378 375 377 382 386 395 399 408 424
363 362 492 487 470 437 474 464 452 444 440 432 431 436 433 443 404 410 420 449 423 429 421 436 424 409 397 408 391 395 387 381 387 391 405 413 403 414
402 471 481 449 445 470 458 444 440 440 436 437 435 437 402 408 412 417 447 437 422 440 437 439 404 433 408 390 376 373 377 384 388 397 409 408 411 421
553 477 436 471 464 457 456 454 451 453 451 451 406 410 412 410 411 414 412 422 456 433 428 413 404 403 404 397 390 394 392 389 384 388 394 397 392 386
457 453 471 466 469 470 475 479 482 479 436 420 414 410 411 399 396 395 395 399 429 422 409 402 396 391 387 383 378 373 365 366 368 369 368 372 370 374
469 473 422 413 416 428 421 421 428 420 414 398 389 381 374 369 364 362 359 359 358 357 357 357 354 352 347 346 345 345 344 344 344 345 344 342 345 344